Weather History for Kalispell, MT

Change the Weather History Date:

Friday, September 19, 2014

  Actual Average Record
Temperature  
Mean Temperature 60 °F 53 °F  
Max Temperature 74 °F 68 °F 85 °F (2008)
Min Temperature 45 °F 37 °F 23 °F (1983)
Degree Days  
Heating Degree Days 5 12  
Month to date heating degree days 209 169  
Since 1 July heating degree days 286 339  
Cooling Degree Days 0 0  
Month to date cooling degree days 0 1  
Year to date cooling degree days 215 144  
Growing Degree Days 10 (Base 50)    
Moisture  
Dew Point 47 °F    
Average Humidity 62    
Maximum Humidity 86    
Minimum Humidity 38    
Precipitation  
Precipitation T in 0.05 in 0.60 in (1925)
Month to date precipitation 0.72 0.92  
Year to date precipitation 15.06 12.53  
Snow  
Snow 0.00 in - - ()
Month to date snowfall 0.0  
Year to date snowfall 38.2  
Since 1 July snowfall 0.0  
Snow Depth 0.00 in    
Sea Level Pressure  
Sea Level Pressure 29.94 in    
Wind  
Wind Speed 8 mph (SW)    
Max Wind Speed 17 mph    
Max Gust Speed 23 mph    
Visibility 10 miles    
Events      
T = Trace of Precipitation, MM = Missing Value Source: NWS Daily Summary

Daily Weather History Graph

Daily Weather History Graph

Search for Another Location

Airport:

Trip Planner

Search our weather history database for the weather conditions in past years. The results will help you decide how hot, cold, wet, or windy it might be!

Date:

Astronomy

Sep. 19, 2014 Rise Set
Actual Time 7:19 AM MDT 7:40 PM MDT
Civil Twilight 6:48 AM MDT 8:12 PM MDT
Nautical Twilight 6:11 AM MDT 8:49 PM MDT
Astronomical Twilight 5:32 AM MDT 9:27 PM MDT
Moon 2:52 AM MDT (9/19) 5:25 PM MDT (9/19)
Length of Visible Light 13h 23m
Length of Day
12h 21m
Waning Crescent, 18% of the Moon is Illuminated
Sep 19
Waning Crescent
Sep 24
New
Oct 1
First Quarter
Oct 8
Full
Oct 15
Last Quarter

Hourly Weather History & Observations

Time (MDT) Temp. Dew Point Humidity Pressure Visibility Wind Dir Wind Speed Gust Speed Precip Events Conditions
12:55 AM 64.0 °F 46.0 °F 52% 29.77 in 10.0 mi West 5.8 mph - N/A   Overcast
1:55 AM 64.9 °F 46.9 °F 52% 29.78 in 10.0 mi WSW 8.1 mph - 0.00 in   Overcast
2:55 AM 64.0 °F 48.0 °F 56% 29.80 in 10.0 mi West 5.8 mph - N/A   Overcast
3:55 AM 62.1 °F 51.1 °F 67% 29.82 in 10.0 mi WSW 11.5 mph - 0.00 in   Overcast
4:55 AM 60.1 °F 52.0 °F 75% 29.83 in 10.0 mi East 4.6 mph - N/A   Overcast
5:55 AM 60.1 °F 51.1 °F 72% 29.85 in 10.0 mi SSE 6.9 mph - N/A   Overcast
6:55 AM 59.0 °F 51.8 °F 77% 29.90 in 10.0 mi South 4.6 mph - N/A   Overcast
7:55 AM 59.0 °F 52.0 °F 78% 29.89 in 10.0 mi SSE 6.9 mph - 0.00 in   Overcast
8:55 AM 59.0 °F 53.1 °F 81% 29.91 in 10.0 mi South 3.5 mph - N/A   Overcast
9:55 AM 63.0 °F 51.1 °F 65% 29.95 in 10.0 mi SE 6.9 mph - N/A   Overcast
10:55 AM 69.1 °F 48.0 °F 47% 29.94 in 10.0 mi SW 13.8 mph - N/A   Overcast
11:55 AM 70.0 °F 46.9 °F 44% 29.95 in 10.0 mi SW 13.8 mph - N/A   Partly Cloudy
12:55 PM 69.1 °F 45.0 °F 42% 29.94 in 10.0 mi West 12.7 mph - N/A   Mostly Cloudy
1:55 PM 71.1 °F 45.0 °F 39% 29.95 in 10.0 mi West 12.7 mph 19.6 mph N/A   Overcast
2:55 PM 71.1 °F 45.0 °F 39% 29.95 in 10.0 mi West 11.5 mph - N/A   Overcast
3:55 PM 70.0 °F 45.0 °F 41% 29.98 in 10.0 mi WNW 11.5 mph - N/A   Overcast
4:55 PM 71.1 °F 45.0 °F 39% 29.98 in 10.0 mi West 10.4 mph - N/A   Overcast
5:55 PM 71.1 °F 45.0 °F 39% 29.98 in 10.0 mi WSW 8.1 mph - N/A   Overcast
6:55 PM 68.0 °F 45.0 °F 43% 30.00 in 10.0 mi SW 4.6 mph - N/A   Overcast
7:55 PM 60.8 °F 44.6 °F 55% 30.03 in 10.0 mi SW 6.9 mph - N/A   Clear
8:55 PM 55.0 °F 44.1 °F 67% 30.06 in 10.0 mi SSW 6.9 mph - N/A   Clear
9:55 PM 53.1 °F 45.0 °F 74% 30.06 in 10.0 mi Variable 5.8 mph - N/A   Clear
10:55 PM 50.0 °F 44.1 °F 80% 30.09 in 10.0 mi SW 3.5 mph - N/A   Clear
11:55 PM 48.0 °F 44.1 °F 86% 30.10 in 10.0 mi Calm Calm - N/A   Clear